Theta_e
291 292 292 292 293 294 294 295 294 295 296 296 296 294 294 294 295 294 294 294 294 294 295 295 294 296 296 297 298 299 299 300 308 286 287 288 287 287 287 289 290 290 291
289 289 290 291 291 291 291 292 293 292 292 292 292 291 291 291 291 291 290 290 290 290 291 292 291 293 292 293 293 292 292 292 292 286 285 285 285 285 286 285 286 288 286
287 287 287 287 288 288 289 290 291 291 290 290 289 289 288 289 289 289 288 288 287 287 288 288 289 290 289 290 290 289 289 290 290 287 284 284 284 284 284 284 284 284 286
285 285 284 285 285 286 287 287 288 289 288 288 288 288 287 287 287 287 287 286 286 285 286 286 286 287 287 288 288 288 288 287 287 285 284 282 282 283 284 283 281 282 281
284 284 284 284 285 285 285 286 286 286 287 287 287 287 287 287 286 285 285 284 283 282 283 283 284 285 287 287 286 286 287 287 286 286 284 283 282 282 282 281 281 279 279
283 282 283 284 284 283 284 284 284 284 284 284 284 285 285 285 286 285 283 281 281 280 279 280 280 281 284 286 286 287 285 285 284 283 282 282 279 279 279 279 278 278 277
281 282 282 282 282 282 282 283 282 282 283 283 283 283 283 284 285 284 283 281 281 280 280 279 279 279 279 280 283 283 283 284 283 280 278 277 277 277 278 277 277 277 276
280 280 281 281 281 281 281 281 281 282 281 281 282 282 282 283 285 284 282 280 280 280 280 280 280 279 279 278 278 278 279 280 279 278 277 276 276 277 277 277 276 275 275
279 280 280 281 281 281 280 280 281 281 281 281 282 282 281 282 285 284 282 281 280 280 281 281 280 280 283 282 278 277 276 277 282 283 283 283 282 281 278 276 271 269 268
278 279 280 280 280 279 279 280 280 281 280 281 281 281 281 282 285 284 281 280 279 279 279 281 283 281 283 282 277 277 275 275 276 276 277 277 278 278 278 275 273 268 265
277 278 278 279 279 279 278 278 279 279 279 278 278 279 280 280 282 284 283 279 278 278 278 279 280 284 284 283 281 277 276 275 275 273 273 272 274 274 273 274 274 271 266
275 275 275 276 278 278 278 277 277 277 276 275 276 277 278 279 284 285 284 283 281 278 277 277 278 283 283 283 280 281 280 274 268 268 269 269 270 270 271 270 269 269 270
271 271 272 273 275 276 275 275 275 275 274 274 276 277 278 279 281 284 285 284 283 279 279 282 283 282 282 280 281 279 272 269 267 265 267 269 270 271 269 266 266 264 263
268 269 271 272 273 273 275 274 273 272 272 275 277 278 278 279 280 281 281 280 281 281 280 279 281 280 280 277 273 272 271 271 270 269 267 267 265 263 262 264 263 261 259
267 267 268 270 271 276 273 273 273 271 276 277 278 278 277 275 280 283 283 281 281 281 278 277 275 274 272 270 269 268 267 266 265 264 261 261 263 263 263 261 259 256 258
267 267 267 267 267 273 277 278 283 283 282 282 282 280 278 280 280 281 280 280 280 281 269 267 268 268 267 266 264 264 263 262 263 262 259 259 260 260 259 259 258 254 255
264 266 265 266 266 270 273 276 275 277 279 279 278 279 278 277 277 277 277 275 275 271 263 263 262 263 262 262 261 260 260 261 258 257 257 257 258 257 257 256 257 256 254
260 261 262 263 264 272 273 274 274 273 271 267 269 272 275 274 274 273 272 266 258 259 257 256 257 258 258 257 257 256 256 256 255 255 255 253 252 253 253 253 253 252 252
260 260 261 262 269 272 272 272 270 268 263 257 257 264 262 270 269 268 266 255 251 252 250 252 251 252 253 252 253 251 251 251 252 250 250 250 250 250 250 251 252 254 253
257 261 259 259 260 263 264 263 261 259 257 255 255 254 253 256 252 253 254 251 251 250 250 250 250 249 248 248 248 248 248 249 250 250 251 251 252 252 252 253 253 252 251
255 255 257 256 256 256 257 257 258 256 254 253 255 262 264 252 249 249 249 250 248 249 249 248 247 246 245 246 246 247 247 250 250 252 254 255 256 253 256 256 255 255 255
254 254 253 253 255 256 254 255 255 255 253 253 253 258 263 251 249 249 248 248 247 246 246 246 246 246 247 248 248 248 251 254 254 254 255 256 256 256 257 256 255 256 255
255 254 253 253 253 254 254 251 252 252 251 250 251 251 250 248 248 247 246 245 244 245 245 245 245 249 249 250 253 254 255 256 257 255 255 255 255 255 253 254 255 254 251
253 253 253 252 252 251 252 250 251 252 250 248 248 248 248 247 247 246 246 246 246 247 246 246 248 251 252 253 253 254 254 255 255 255 255 254 255 255 254 254 255 255 255
250 251 252 251 250 251 251 251 251 248 248 249 248 247 246 246 246 246 247 247 247 248 250 252 252 253 253 253 254 255 256 258 257 257 255 251 252 253 256 258 257 257 256
250 250 249 250 249 249 249 251 249 250 250 251 250 247 247 247 248 247 249 249 251 252 253 254 254 253 253 255 255 256 257 260 260 260 258 257 256 257 258 258 257 257 256
Wind_Speed
6 6 6 7 5 4 5 6 8 9 7 5 7 9 7 7 7 7 10 7 8 6 6 6 6 4 4 4 3 3 4 2 8 4 4 5 5 6 6 7 7 7 6
7 5 6 7 6 6 8 10 9 9 9 9 9 10 10 11 9 10 10 8 9 10 8 9 9 5 8 7 5 6 4 4 3 4 2 3 5 5 6 7 5 5 5
6 5 10 9 7 9 11 11 10 8 10 10 11 12 12 10 12 10 11 10 12 11 10 10 9 9 9 6 6 6 5 5 5 5 4 2 5 3 5 5 4 5 4
7 10 11 8 11 12 11 12 11 10 12 12 13 13 12 12 10 11 10 12 11 11 11 11 11 10 8 7 7 7 5 7 8 8 6 4 4 3 3 2 3 3 3
10 12 11 12 13 13 12 13 11 13 12 13 13 12 12 13 6 11 10 10 11 11 10 10 11 12 19 13 5 6 6 6 6 6 4 2 2 2 2 1 2 2 2
13 14 13 12 13 13 12 12 13 13 13 13 12 13 13 9 17 18 12 10 10 11 10 9 9 9 15 21 21 22 11 5 4 3 2 3 2 2 3 2 2 2 2
14 13 13 12 14 13 12 14 13 12 12 12 12 11 13 12 19 19 17 9 9 9 8 7 8 6 7 8 16 20 18 20 14 4 4 3 3 1 2 2 2 2 2
15 14 12 12 13 12 11 12 11 11 11 10 10 9 10 11 18 18 17 10 10 10 9 8 7 7 8 7 9 12 12 12 10 7 7 6 5 4 4 2 2 4 3
13 12 10 8 10 10 11 10 9 10 11 10 8 10 10 10 15 15 12 9 10 10 8 8 6 6 10 11 9 9 7 6 10 15 15 15 13 11 5 3 2 3 1
12 10 8 8 9 9 8 8 8 10 10 8 10 9 9 9 14 13 10 5 8 6 6 6 13 8 12 11 6 6 7 4 4 4 4 8 9 9 13 6 2 3 1
10 9 9 9 8 7 7 7 7 8 9 8 9 7 8 8 11 15 14 6 5 4 4 5 4 14 14 15 13 7 5 4 7 5 4 4 4 5 4 5 5 3 1
8 9 10 9 7 7 8 7 7 7 8 8 7 7 7 7 12 15 16 14 9 5 4 3 3 12 14 14 9 12 12 8 3 3 3 3 3 3 3 2 3 3 3
7 6 6 6 7 8 8 7 6 7 7 5 5 4 4 4 4 11 13 11 10 4 2 7 12 12 12 9 12 12 8 4 2 3 3 2 1 1 2 2 3 4 2
7 8 7 7 6 6 5 4 5 4 4 3 3 3 2 4 4 2 1 2 6 4 4 3 6 9 11 10 7 9 6 5 4 3 1 1 1 2 3 3 2 3 3
5 5 6 5 6 7 3 3 4 1 3 2 3 3 3 4 6 9 7 3 2 2 3 3 3 4 5 5 4 5 5 4 5 2 3 3 2 2 2 2 2 2 2
4 4 4 3 2 2 3 4 13 13 15 16 15 9 5 10 13 12 11 13 12 7 5 3 2 3 3 3 2 1 2 3 2 2 2 1 1 2 2 3 2 2 1
5 5 3 4 4 3 3 1 3 7 14 15 15 13 13 12 15 14 9 10 14 6 4 3 3 3 3 3 2 2 2 2 2 2 2 2 3 3 3 2 2 1 2
5 4 3 2 2 2 1 2 2 2 2 3 9 11 10 12 14 16 6 8 6 8 4 3 3 2 1 1 2 2 3 3 3 2 3 2 3 1 1 1 1 0 1
3 2 3 2 2 2 2 2 2 3 4 3 3 5 9 11 13 15 17 5 2 3 3 3 2 3 3 2 3 3 3 3 3 3 2 2 2 1 2 2 2 3 1
2 4 3 2 3 3 3 3 3 3 3 3 3 3 3 5 4 4 4 3 4 2 3 3 3 2 2 2 2 2 3 3 3 2 2 2 2 2 2 3 2 2 2
0 1 2 2 3 2 2 3 3 3 3 2 1 1 9 4 2 2 2 2 2 2 1 1 2 2 2 2 2 2 2 3 3 3 2 2 2 2 3 3 3 4 3
2 2 2 2 2 3 3 3 3 3 2 3 2 4 9 3 2 2 3 2 2 2 2 3 3 3 3 3 3 3 3 4 4 3 3 3 3 4 3 3 4 4 4
2 2 2 2 2 3 4 3 3 3 2 3 2 2 3 2 2 2 3 3 3 3 3 2 3 4 3 4 4 4 5 6 5 3 5 5 5 4 4 4 4 4 4
2 3 3 3 2 3 3 2 2 3 3 2 2 2 2 2 3 4 4 4 4 4 3 3 3 5 5 5 4 4 5 6 5 6 7 6 7 6 5 6 6 7 6
3 3 3 2 3 3 3 2 2 2 1 1 1 1 2 3 3 4 4 4 4 4 5 4 4 6 8 9 9 10 10 13 10 10 6 6 9 9 9 8 9 8 8
3 3 3 2 2 2 2 2 1 1 0 1 2 3 3 3 4 4 4 4 4 5 6 6 7 9 10 9 11 12 13 14 12 13 9 8 9 9 9 11 11 9 10
Wind_Direction
29 25 48 55 45 49 66 65 61 60 47 67 86 90 57 67 50 65 59 56 70 60 50 67 49 31 51 39 31 23 23 333 243 73 61 40 59 73 62 61 65 79 86
45 40 72 71 65 71 67 62 68 71 66 58 67 80 78 60 60 65 69 56 70 63 55 61 52 50 54 40 37 37 45 22 97 114 109 81 70 63 77 77 65 72 74
74 84 68 62 69 65 64 67 74 84 83 74 81 71 68 68 70 65 72 75 66 62 59 58 50 54 54 45 48 53 40 43 65 100 95 67 79 71 82 73 71 71 70
51 58 65 62 60 60 59 65 67 70 76 74 70 71 68 73 72 77 74 73 75 65 61 58 58 54 60 57 54 47 60 73 70 78 75 76 80 61 79 107 90 64 74
63 64 59 56 56 57 60 63 70 67 65 65 73 74 70 70 63 82 80 77 79 76 63 61 58 60 61 64 71 50 60 72 77 92 85 77 95 107 91 96 92 130 70
48 52 52 55 64 55 56 60 62 65 67 71 65 72 73 74 78 80 80 78 69 71 69 60 55 48 62 68 65 61 59 87 98 105 106 99 88 112 146 148 114 123 126
45 47 51 52 59 60 56 60 59 63 68 69 65 74 81 81 82 78 74 72 75 69 68 66 62 52 55 65 67 67 58 55 55 88 96 76 109 59 121 86 82 90 109
42 41 41 53 60 58 59 64 59 60 60 60 59 60 74 79 82 85 81 78 73 60 55 51 62 50 54 71 75 64 51 55 49 58 73 77 68 48 67 65 82 84 58
35 36 36 46 65 71 66 62 62 68 63 56 51 52 59 64 71 71 69 66 66 59 59 59 67 65 80 89 87 92 81 56 63 76 80 83 77 69 97 89 48 87 20
15 17 20 43 57 60 61 64 69 71 65 62 55 45 52 64 72 75 75 78 74 58 41 45 63 62 69 68 72 69 77 45 53 55 47 53 53 51 52 47 72 95 111
6 13 18 19 36 44 58 47 62 72 76 60 61 38 43 39 57 64 66 58 62 66 54 39 36 61 62 64 64 56 66 59 55 53 56 49 44 46 38 34 36 62 70
9 26 24 20 27 33 50 46 47 56 65 55 52 47 28 21 59 59 64 70 69 73 55 33 42 60 60 62 56 64 68 70 58 61 53 30 25 23 21 20 34 28 40
15 24 26 26 34 36 43 39 49 46 52 45 53 50 37 28 46 47 59 66 70 80 102 76 70 69 73 63 66 64 56 44 41 49 35 11 347 311 328 15 58 66 75
18 15 9 21 23 39 57 59 73 67 63 59 57 56 25 27 19 6 48 48 51 62 66 45 77 73 62 55 47 38 33 27 36 42 27 289 332 8 21 3 38 4 42
18 21 23 21 16 41 40 74 69 59 111 50 47 40 33 39 16 33 33 28 359 164 97 65 53 47 45 39 33 34 25 18 24 2 21 344 359 25 5 9 37 20 75
24 18 11 17 8 41 65 51 79 78 68 57 55 62 43 31 15 22 29 25 21 57 45 58 54 60 64 49 20 343 42 14 351 347 28 3 22 24 350 3 44 84 115
8 359 4 25 25 25 13 118 110 68 68 56 42 34 30 14 3 355 4 35 31 38 65 54 57 46 34 33 19 18 5 336 350 19 28 358 6 19 26 350 341 360 333
355 350 356 347 12 34 31 307 10 355 10 9 20 29 29 26 21 15 32 39 26 28 49 50 51 45 31 21 354 2 340 344 359 6 14 10 14 40 336 341 308 246 271
340 334 336 325 293 341 342 44 60 69 64 22 352 19 15 28 36 40 52 73 95 44 23 37 12 10 9 357 353 352 342 333 342 348 339 341 325 49 310 273 284 282 282
332 350 16 17 12 31 25 71 68 76 76 64 33 336 346 37 33 15 32 40 46 41 25 22 350 345 340 329 320 322 330 331 326 296 276 275 263 219 248 256 253 252 235
337 43 59 60 51 56 79 95 101 100 101 73 352 74 84 99 93 50 22 30 43 20 352 343 318 309 303 299 300 299 280 279 270 261 266 267 247 271 243 248 252 240 240
50 45 48 62 46 59 68 81 93 96 90 87 12 27 73 58 57 35 8 346 310 277 249 235 263 250 247 239 244 252 260 265 259 251 263 259 255 251 242 245 247 248 238
125 109 73 63 70 90 71 58 82 88 78 58 46 43 30 28 9 339 314 301 302 298 284 267 273 293 275 253 235 238 259 267 266 233 266 273 267 253 229 245 245 244 222
131 124 121 104 80 85 98 91 85 83 91 78 42 24 8 318 293 286 277 281 288 283 271 265 255 265 279 268 252 242 244 257 253 254 239 245 258 263 252 247 242 241 245
128 128 118 123 123 123 108 99 94 84 78 53 359 305 280 287 295 288 282 279 278 283 285 278 263 265 271 280 278 271 265 268 257 250 243 227 242 245 252 255 251 248 243
117 112 113 118 119 131 137 142 130 99 329 283 269 264 264 279 273 275 279 280 284 284 287 280 271 264 270 274 270 271 272 272 266 256 238 233 240 245 241 245 245 241 244